Location: La Brionne
(46.1728°N, 1.7849°E)
Time: 12:11:15
(UTC+00:00)

Cosmos 2219 Rocket - Pass Details

Date: 22 October 2021
Orbit: 826 x 848 km, 71.0° (Epoch: 01 December)

Event Time Altitude Azimuth Distance (km) Brightness Sun altitude
Rises 03:49:01 0° 340° (NNW) 3,398 5.3 -26.6°
Reaches altitude 10° 03:52:03 10° 356° (N) 2,464 4.7 -26.1°
Maximum altitude 03:56:22 22° 46° (NE) 1,775 4.4 -25.4°
Drops below altitude 10° 04:00:40 10° 95° (E) 2,465 5.6 -24.7°
Sets 04:03:41 0° 111° (ESE) 3,399 6.3 -24.2°
